星链-34451 (STARLINK-34451)

导读

STARLINK-34451是美国太空探索技术公司Starlink星链互联网星座中的一颗卫星,于2025年6月17日发射升空,归属美国。星链项目旨在构建全球卫星互联网通信网络,该卫星入轨后,将同其他星链卫星协同工作,为全球范围用户提供低延迟、高速率的宽带互联网接入服务,进一步扩充星链星座的在轨规模与覆盖能力。

基本信息
目录编号:
64433
目录名称:
STARLINK-34451
国际标识:
2025-129X
轨道中心:
EARTH
卫星名称:
星链-34451
卫星全名:
星链-34451 (STARLINK-34451)
卫星状态:
在轨 (已飞行444 天)
发射日期:
2025-06-17 UTC
国别 :
美国 (US)
星等 :
--
轨道信息
数据来源 国际轨道数据
星历时间: 2026-09-04T12:00:02+0800
8小时前
查看轨道信息
半长轴: 6873.75km
偏心率: 0.0001464
轨道倾角: 70.001°
近地点辐角 246.781°
升交点赤经 344.251°
平近点角 231.394°
近地点: 494.606km
远地点: 496.62km
周期: 94.526分钟
每日圈数: 15.23394
详细信息
固有亮度:
5
最大亮度:
2.5
卫星平台:
Starlink V1.0
覆盖范围:
全球
运营商:
太空探索技术公司
运营商所在国:
美国
制造商(研发单位):
太空探索技术公司
制造商所在国:
美国
使用方式:
暂无
卫星简介
Starlink 计划是 SpaceX 推出的全球卫星互联网项目,通过发射低轨道卫星,为全球尤其是偏远地区提供高速、低延迟的互联网服务。自 2019 年起,Starlink 已部署数千颗卫星,旨在缩小全球数字鸿沟,推动互联网普及。该项目还为军事、航空等行业提供通信支持,带来广泛经济效益。
2D轨道图
3D轨道图
轨道高度分析图
轨道倾角分析图
轨道综合分析图
查看轨道综合分析图
交会数据列表
事件ID 空间交会对象 最接近时刻(TCA) 交会距离 交会风险概率(CRP) 交会风险指数(CRI) 操作
CDM_260906-015906-443306-936421
2026-09-06T
01:59:06+0000
0.416 km
远距离
2.710055E-4 高风险 0.84
CDM_260906-105905-236106-443321
2026-09-06T
10:59:11+0000
1.948 km
极远距离
2.61443E-6 低风险 0.43
CDM_260830-120801-031406-443322
2026-08-30T
12:08:31+0000
2.011 km
极远距离
2.047972E-6 低风险 0.41
CDM_260905-153304-866306-443321
2026-09-05T
15:33:52+0000
1.544 km
极远距离
1.878359E-6 低风险 0.4
CDM_260904-235005-969106-443321
2026-09-04T
23:50:52+0000
2.306 km
极远距离
1.834951E-6 低风险 0.4
CDM_260906-072706-443306-936421
2026-09-06T
07:27:23+0000
2.433 km
极远距离
1.646909E-6 低风险 0.39
CDM_260905-060705-969106-443321
2026-09-05T
06:07:40+0000
2.808 km
极远距离
1.3088E-6 低风险 0.37
CDM_260905-042906-443306-719121
2026-09-05T
04:29:06+0000
2.195 km
极远距离
1.215478E-6 低风险 0.37
CDM_260906-062706-046306-443321
2026-09-06T
06:27:17+0000
2.446 km
极远距离
9.421306E-7 极低风险 0.34
CDM_260906-041905-246906-443321
2026-09-06T
04:19:31+0000
2.626 km
极远距离
6.708864E-7 极低风险 0.32